FW1757 Weather Reports


time (UTC)temp
C
wind
direction
speed
KPH
gust
KPH
rain 1hr
cm
rain 24hr
cm
rain mn
cm
humidity
%
barometer
mb
20260506114549 15 288 0.0 0.0 0.00 0.00 0.00 67 1014.3
20260506114044 15 293 0.0 0.0 0.00 0.00 0.00 67 1014.2
20260506113543 15 247 0.0 0.0 0.00 0.00 0.00 67 1014.2
20260506113041 15 297 0.0 0.0 0.00 0.00 0.00 67 1014.1
20260506112542 15 255 0.0 0.0 0.00 0.00 0.00 67 1014.2
20260506112038 15 223 0.0 0.0 0.00 0.00 0.00 67 1014.0
20260506111541 15 291 0.0 0.0 0.00 0.00 0.00 67 1014.1
20260506111038 15 279 0.0 0.0 0.00 0.00 0.00 67 1013.9
20260506110537 15 289 0.0 0.0 0.00 0.00 0.00 66 1013.9
20260506110037 15 313 0.0 0.0 0.00 0.00 0.00 67 1013.8
20260506105537 15 306 0.0 0.0 0.00 0.00 0.00 66 1013.7
20260506105036 15 287 0.0 0.0 0.00 0.00 0.00 66 1013.6
20260506104535 15 308 0.0 0.0 0.00 0.00 0.00 66 1013.6
20260506104034 15 278 0.0 0.0 0.00 0.00 0.00 66 1013.5
20260506103533 15 273 0.0 0.0 0.00 0.00 0.00 66 1013.3
20260506103033 15 300 0.0 0.0 0.00 0.00 0.00 66 1013.2
20260506102533 15 300 0.0 0.0 0.00 0.00 0.00 66 1013.2
20260506102034 15 281 0.0 0.0 0.00 0.00 0.00 66 1013.2
20260506101534 15 294 0.0 0.0 0.00 0.00 0.00 66 1013.2
20260506101032 15 272 0.0 0.0 0.00 0.00 0.00 66 1013.2
20260506100532 15 297 0.0 0.0 0.00 0.00 0.00 65 1013.1
20260506100032 15 309 0.0 0.0 0.00 0.00 0.00 65 1013.2
20260506095531 15 278 0.0 0.0 0.00 0.00 0.00 65 1013.1
20260506095031 15 251 0.0 0.0 0.00 0.00 0.00 66 1013.0
20260506094532 15 263 0.0 0.0 0.00 0.00 0.00 65 1013.0
20260506094030 15 238 0.0 0.0 0.00 0.00 0.00 65 1013.1
20260506093532 15 272 0.0 0.0 0.00 0.00 0.00 65 1013.0
20260506093031 15 281 0.0 0.0 0.00 0.00 0.00 65 1012.9
20260506092531 15 254 0.0 0.0 0.00 0.00 0.00 65 1013.0
20260506092030 15 207 0.0 0.0 0.00 0.00 0.00 65 1013.0
20260506091530 15 249 0.0 0.0 0.00 0.00 0.00 65 1013.0
20260506091030 15 264 0.0 0.0 0.00 0.00 0.00 65 1013.0
20260506090529 15 251 0.0 0.0 0.00 0.00 0.00 65 1013.0
20260506090028 15 207 0.0 0.0 0.00 0.00 0.00 65 1013.1
20260506085528 15 289 0.0 0.0 0.00 0.00 0.00 65 1013.0
20260506085028 15 234 0.0 0.0 0.00 0.00 0.00 65 1013.0
20260506084528 15 232 0.0 0.0 0.00 0.00 0.00 65 1013.1
20260506084031 15 261 0.0 0.0 0.00 0.00 0.00 65 1013.0
20260506083528 15 219 0.0 0.0 0.00 0.00 0.00 64 1013.0
20260506083027 15 232 0.0 0.0 0.00 0.00 0.00 64 1013.1
20260506082527 15 227 0.0 0.0 0.00 0.00 0.00 64 1013.1
20260506082027 15 250 0.0 0.0 0.00 0.00 0.00 64 1013.0
20260506081527 15 294 0.0 0.0 0.00 0.00 0.00 64 1013.1
20260506081027 15 278 0.0 0.0 0.00 0.00 0.00 64 1013.0
20260506080526 15 202 0.0 0.0 0.00 0.00 0.00 64 1013.0
20260506073524 15 215 0.0 0.0 0.00 0.00 0.00 64 1012.8
20260506073023 15 292 0.0 0.0 0.00 0.00 0.00 65 1012.8
20260506072523 15 292 0.0 0.0 0.00 0.00 0.00 65 1012.8
20260506072022 15 286 0.0 0.0 0.00 0.00 0.00 65 1012.8
20260506071529 15 286 0.0 0.0 0.00 0.00 0.00 64 1012.8
20260506071022 15 258 0.0 0.0 0.00 0.00 0.00 64 1012.8
20260506070520 15 274 0.0 0.0 0.00 0.00 0.00 64 1012.8
20260506062018 15 273 0.0 0.0 0.00 0.00 0.00 64 1012.5
20260506061521 15 246 0.0 0.0 0.00 0.00 0.00 64 1012.4
20260506061018 15 250 0.0 0.0 0.00 0.00 0.00 64 1012.5
20260506060519 15 297 0.0 0.0 0.00 0.00 0.00 65 1012.4
20260506051012 15 299 0.0 0.0 0.00 0.00 0.00 63 1011.7
20260506050516 15 303 0.0 0.0 0.00 0.00 0.00 63 1011.5
20260506045011 15 291 0.0 0.0 0.00 0.00 0.00 63 1011.4
20260506044510 15 312 0.0 0.0 0.00 0.00 0.00 63 1011.4
20260506044016 15 269 0.0 0.0 0.00 0.00 0.00 64 1011.3
20260506043510 15 290 0.0 0.0 0.00 0.00 0.00 64 1011.1
20260506043010 15 283 0.0 0.0 0.00 0.00 0.00 64 1011.2
20260506042510 15 294 0.0 0.0 0.00 0.00 0.00 65 1011.3
20260506042013 15 275 0.0 0.0 0.00 0.00 0.00 65 1011.3
20260506041509 15 257 0.0 0.0 0.00 0.00 0.00 65 1011.2
20260506041012 15 249 0.0 0.0 0.00 0.00 0.00 66 1011.1
20260506040509 15 275 0.0 0.0 0.00 0.00 0.00 66 1011.1
20260506040030 15 259 0.0 0.0 0.00 0.00 0.00 66 1011.0
20260506035509 16 257 0.0 0.0 0.00 0.00 0.00 66 1010.7
20260506035009 16 271 0.0 0.0 0.00 0.00 0.00 66 1010.8
20260506034509 16 257 0.0 0.0 0.00 0.00 0.00 66 1010.6
20260506034009 16 242 0.0 0.0 0.00 0.00 0.00 67 1010.6
20260506033508 16 290 0.0 0.0 0.00 0.00 0.00 67 1010.6
20260506033008 16 286 0.0 0.0 0.00 0.00 0.00 67 1010.5
20260506032508 16 271 0.0 0.0 0.00 0.00 0.00 67 1010.6
20260506032009 16 267 0.0 0.0 0.00 0.00 0.00 67 1010.5
20260506031519 16 292 0.0 0.0 0.00 0.00 0.00 67 1010.4
20260506031011 17 281 0.0 0.0 0.00 0.00 0.00 66 1010.4
20260506030506 17 251 0.0 0.0 0.00 0.00 0.00 66 1010.2
20260506030007 17 254 0.0 0.0 0.00 0.00 0.00 66 1010.2
20260506025506 17 294 0.0 0.0 0.00 0.00 0.00 66 1010.1
20260506025006 17 287 0.0 0.0 0.00 0.00 0.00 65 1010.0
20260506024516 18 296 0.0 0.0 0.00 0.00 0.00 65 1010.0
20260506024006 18 288 0.0 0.0 0.00 0.00 0.00 64 1010.0
20260506023506 18 290 0.0 0.0 0.00 0.00 0.00 64 1010.0
20260506023006 18 285 0.0 0.0 0.00 0.00 0.00 64 1010.1
20260506022506 18 296 0.0 0.0 0.00 0.00 0.00 63 1010.0
20260506022005 18 269 0.0 0.0 0.00 0.00 0.00 63 1009.9
20260506021506 18 288 0.0 0.0 0.00 0.00 0.00 63 1010.0
20260506021005 18 278 0.0 0.0 0.00 0.00 0.00 62 1010.0
20260506020511 19 265 0.0 0.0 0.00 0.00 0.00 62 1010.0
20260506020005 19 289 0.0 0.0 0.00 0.00 0.00 62 1009.9
20260506015504 19 294 0.0 0.0 0.00 0.00 0.00 61 1009.9
20260506015004 20 279 0.0 0.0 0.00 0.00 0.00 61 1009.9
20260506014503 20 304 0.0 0.0 0.00 0.00 0.00 60 1009.9
20260506014003 20 288 0.0 0.0 0.00 0.00 0.00 58 1009.8
20260506013507 21 275 0.0 0.0 0.00 0.00 0.00 57 1009.8
20260506013003 21 279 0.0 0.0 0.00 0.00 0.00 57 1009.8
20260506012503 21 269 0.0 0.0 0.00 0.00 0.00 57 1009.9
20260506012004 21 288 0.0 0.0 0.00 0.00 0.00 55 1009.8
20260506011503 21 262 0.0 0.0 0.00 0.00 0.00 56 1009.8
20260506011002 22 261 0.0 0.0 0.00 0.00 0.00 54 1009.7
20260506010502 22 266 0.0 0.0 0.00 0.00 0.00 53 1009.8
20260506010005 22 268 0.0 0.0 0.00 0.00 0.00 54 1009.8
20260506005501 22 249 0.0 0.0 0.00 0.00 0.00 54 1009.9
20260506005001 22 259 0.0 0.0 0.00 0.00 0.00 54 1009.9
20260506004501 22 261 0.0 0.0 0.00 0.00 0.00 56 1009.9
20260506004001 21 267 0.0 0.0 0.00 0.00 0.00 56 1009.8
20260506003503 21 267 0.0 0.0 0.00 0.00 0.00 55 1009.9
20260506003001 21 288 0.0 0.0 0.00 0.00 0.00 55 1009.8
20260506002500 21 288 0.0 0.0 0.00 0.00 0.00 57 1009.9
20260506002100 21 267 0.0 0.0 0.00 0.00 0.00 58 1009.8
20260506001600 21 277 0.0 0.0 0.00 0.00 0.00 57 1009.8
20260506001101 21 267 0.0 0.0 0.00 0.00 0.00 57 1009.8
20260506000600 21 273 0.0 0.0 0.00 0.00 0.00 57 1009.8
20260505235559 21 298 0.0 0.0 0.00 0.00 0.00 56 1010.0
20260505235101 22 290 0.0 0.0 0.00 0.00 0.00 56 1010.1
20260505234605 22 266 0.0 0.0 0.00 0.00 0.00 56 1010.1
20260505234058 22 286 0.0 0.0 0.00 0.00 0.00 57 1010.1
20260505233602 22 286 0.0 0.0 0.00 0.00 0.00 56 1010.2
20260505233111 22 299 0.0 0.0 0.00 0.00 0.00 56 1010.2
20260505232558 22 293 0.0 0.0 0.00 0.00 0.00 56 1010.2
20260505232058 22 283 0.0 0.0 0.00 0.00 0.00 55 1010.2
20260505231605 22 319 0.0 0.0 0.00 0.00 0.00 55 1010.2
20260505231101 22 294 0.0 0.0 0.00 0.00 0.00 55 1010.2
20260505230556 22 275 0.0 0.0 0.00 0.00 0.00 56 1010.2
20260505230056 22 263 0.0 0.0 0.00 0.00 0.00 56 1010.3
20260505225556 21 284 0.0 0.0 0.00 0.00 0.00 58 1010.3
20260505225056 21 296 0.0 0.0 0.00 0.00 0.00 56 1010.4
20260505224556 21 294 0.0 0.0 0.00 0.00 0.00 56 1010.3
20260505224055 22 281 0.0 0.0 0.00 0.00 0.00 56 1010.4
20260505223555 21 259 0.0 0.0 0.00 0.00 0.00 56 1010.3
20260505223057 22 284 0.0 0.0 0.00 0.00 0.00 56 1010.4
20260505222555 22 284 0.0 0.0 0.00 0.00 0.00 56 1010.4
20260505222055 22 310 0.0 0.0 0.00 0.00 0.00 56 1010.4
20260505221555 22 273 0.0 0.0 0.00 0.00 0.00 56 1010.5
20260505221053 22 300 0.0 0.0 0.00 0.00 0.00 56 1010.5
20260505220557 22 298 0.0 0.0 0.00 0.00 0.00 55 1010.4
20260505220052 21 257 0.0 0.0 0.00 0.00 0.00 57 1010.5
20260505215551 21 284 0.0 0.0 0.00 0.00 0.00 56 1010.5
20260505215051 21 259 0.0 0.0 0.00 0.00 0.00 58 1010.6
20260505214555 21 260 0.0 0.0 0.00 0.00 0.00 57 1010.7
20260505214051 21 278 0.0 0.0 0.00 0.00 0.00 57 1010.8
20260505213550 21 292 0.0 0.0 0.00 0.00 0.00 56 1010.8
20260505213052 21 271 0.0 0.0 0.00 0.00 0.00 58 1010.8
20260505212550 21 292 0.0 0.0 0.00 0.00 0.00 56 1010.9
20260505212049 21 279 0.0 0.0 0.00 0.00 0.00 58 1010.9
20260505211556 21 298 0.0 0.0 0.00 0.00 0.00 58 1010.8
20260505211051 21 274 0.0 0.0 0.00 0.00 0.00 57 1010.9
20260505210547 21 293 0.0 0.0 0.00 0.00 0.00 58 1010.9
20260505210047 21 304 0.0 0.0 0.00 0.00 0.00 57 1011.0
20260505205546 21 295 0.0 0.0 0.00 0.00 0.00 58 1011.0
20260505205049 21 242 0.0 0.0 0.00 0.00 0.00 58 1011.0
20260505204547 21 270 0.0 0.0 0.00 0.00 0.00 60 1011.0
20260505204044 20 275 0.0 0.0 0.00 0.00 0.00 59 1011.1
20260505203548 20 294 0.0 0.0 0.00 0.00 0.00 58 1011.0
20260505203047 20 284 0.0 0.0 0.00 0.00 0.00 57 1011.0
20260505202546 20 282 0.0 0.0 0.00 0.00 0.00 58 1011.1
20260505202047 20 279 0.0 0.0 0.00 0.00 0.00 58 1011.1
20260505201545 20 290 0.0 0.0 0.00 0.00 0.00 58 1011.1
20260505201043 20 283 0.0 0.0 0.00 0.00 0.00 59 1011.2
20260505200543 20 296 0.0 0.0 0.00 0.00 0.00 58 1011.3
20260505200047 20 296 0.0 0.0 0.00 0.00 0.00 57 1011.3
20260505195541 20 315 0.0 0.0 0.00 0.00 0.00 59 1011.3
20260505195040 20 241 0.0 0.0 0.00 0.00 0.00 56 1011.3
20260505194540 20 284 0.0 0.0 0.00 0.00 0.00 59 1011.3
20260505194038 20 245 0.0 0.0 0.00 0.00 0.00 58 1011.4
20260505193538 20 254 0.0 0.0 0.00 0.00 0.00 59 1011.5
20260505193036 20 288 0.0 0.0 0.00 0.00 0.00 60 1011.5
20260505192535 19 265 0.0 0.0 0.00 0.00 0.00 60 1011.5
20260505192034 19 274 0.0 0.0 0.00 0.00 0.00 61 1011.7
20260505191533 19 318 0.0 0.0 0.00 0.00 0.00 60 1011.6
20260505191035 19 304 0.0 0.0 0.00 0.00 0.00 60 1011.6
20260505190532 19 306 0.0 0.0 0.00 0.00 0.00 61 1011.7
20260505190037 19 288 0.0 0.0 0.00 0.00 0.00 61 1011.7
20260505185532 18 281 0.0 0.0 0.00 0.00 0.00 61 1011.7
20260505185032 19 321 0.0 0.0 0.00 0.00 0.00 60 1011.7
20260505184530 18 299 0.0 0.0 0.00 0.00 0.00 62 1011.8
20260505184030 18 254 0.0 0.0 0.00 0.00 0.00 60 1011.9
20260505183530 18 306 0.0 0.0 0.00 0.00 0.00 63 1011.9
20260505183032 18 284 0.0 0.0 0.00 0.00 0.00 62 1011.9
20260505182529 18 303 0.0 0.0 0.00 0.00 0.00 61 1012.0
20260505182029 18 278 0.0 0.0 0.00 0.00 0.00 63 1011.9
20260505181529 18 304 0.0 0.0 0.00 0.00 0.00 62 1011.9
20260505181028 18 252 0.0 0.0 0.00 0.00 0.00 62 1011.9
20260505180525 18 247 0.0 0.0 0.00 0.00 0.00 63 1011.9
20260505180025 18 310 0.0 0.0 0.00 0.00 0.00 63 1012.0
20260505175525 18 296 0.0 0.0 0.00 0.00 0.00 61 1012.0
20260505175024 17 299 0.0 0.0 0.00 0.00 0.00 63 1012.0
20260505174524 17 279 0.0 0.0 0.00 0.00 0.00 64 1011.9
20260505174026 17 284 0.0 0.0 0.00 0.00 0.00 64 1011.9
20260505173523 17 280 0.0 0.0 0.00 0.00 0.00 64 1012.0
20260505173022 17 254 0.0 0.0 0.00 0.00 0.00 65 1012.2
20260505172521 17 277 0.0 0.0 0.00 0.00 0.00 65 1012.0
20260505172023 17 284 0.0 0.0 0.00 0.00 0.00 65 1012.0
20260505171524 17 263 0.0 0.0 0.00 0.00 0.00 65 1012.0
20260505171021 17 317 0.0 0.0 0.00 0.00 0.00 65 1012.0
20260505170521 16 276 0.0 0.0 0.00 0.00 0.00 66 1011.9
20260505170020 16 302 0.0 0.0 0.00 0.00 0.00 67 1011.9
20260505165521 16 284 0.0 0.0 0.00 0.00 0.00 66 1011.8
20260505165020 16 259 0.0 0.0 0.00 0.00 0.00 67 1012.0
20260505164519 16 267 0.0 0.0 0.00 0.00 0.00 67 1011.9
20260505164023 16 268 0.0 0.0 0.00 0.00 0.00 67 1011.8
20260505163517 16 276 0.0 0.0 0.00 0.00 0.00 67 1011.8
20260505163017 16 252 0.0 0.0 0.00 0.00 0.00 67 1011.8
20260505162517 16 221 0.0 0.0 0.00 0.00 0.00 67 1011.9
20260505162017 16 279 0.0 0.0 0.00 0.00 0.00 67 1011.8
20260505161517 15 267 0.0 0.0 0.00 0.00 0.00 67 1011.8
20260505161019 15 250 0.0 0.0 0.00 0.00 0.00 67 1011.9
20260505160519 15 253 0.0 0.0 0.00 0.00 0.00 67 1011.9
20260505153014 15 300 0.0 0.0 0.00 0.00 0.00 65 1011.7
20260505152513 15 247 0.0 0.0 0.00 0.00 0.00 65 1011.6
20260505152017 15 284 0.0 0.0 0.00 0.00 0.00 64 1011.5
20260505151511 15 214 0.0 0.0 0.00 0.00 0.00 64 1011.5
20260505151011 14 298 0.0 0.0 0.00 0.00 0.00 64 1011.5
20260505150511 14 267 0.0 0.0 0.00 0.00 0.00 63 1011.5
20260505140506 13 287 0.0 0.0 0.00 0.00 0.00 59 1010.9
20260505124607 13 300 0.0 0.0 0.00 0.00 0.00 60 1010.0
20260505124058 14 273 0.0 0.0 0.00 0.00 0.00 60 1010.0
20260505123557 14 194 0.0 0.0 0.00 0.00 0.00 61 1009.9
20260505123058 14 285 0.0 0.0 0.00 0.00 0.00 61 1009.9
20260505122556 14 240 0.0 0.0 0.00 0.00 0.00 61 1009.8
20260505122055 14 269 0.0 0.0 0.00 0.00 0.00 62 1009.8
20260505121555 14 285 0.0 0.0 0.00 0.00 0.00 62 1009.8
20260505121058 14 294 0.0 0.0 0.00 0.00 0.00 62 1009.6
20260505120554 14 292 0.0 0.0 0.00 0.00 0.00 62 1009.6
20260505120108 14 266 0.0 0.0 0.00 0.00 0.00 62 1009.6
20260505115553 14 278 0.0 0.0 0.00 0.00 0.00 62 1009.6
20260505115052 14 280 0.0 0.0 0.00 0.00 0.00 62 1009.6
20260505114552 15 295 0.0 0.0 0.00 0.00 0.00 63 1009.5